Theta_e
318 318 318 318 318 318 318 318 319 320 321 321 320 320 320 320 320 323 326 328 333 340 343 343 342 342 343 344 343 340 348 351 349 348 346 344 342 340 340 340 342 344 341 342 337
317 318 318 318 318 319 319 318 318 320 321 321 321 320 320 320 320 324 325 326 332 332 340 343 343 342 345 347 345 341 345 346 345 344 345 344 341 343 340 342 345 343 339 340 340
318 318 318 318 318 319 319 319 318 318 320 321 321 321 320 319 321 322 326 324 331 331 331 338 339 341 343 345 345 344 343 341 344 343 343 344 341 343 341 341 344 342 342 343 345
316 317 317 318 318 319 319 320 319 318 319 321 322 321 320 319 323 325 325 324 329 329 330 331 337 341 343 345 344 345 342 343 344 344 343 343 341 343 340 339 341 342 339 343 345
313 314 315 316 318 319 319 320 320 319 318 321 322 321 321 319 319 323 328 324 326 328 329 328 336 340 343 344 344 344 343 342 344 343 344 343 343 343 341 342 341 343 343 345 346
312 313 313 314 316 318 320 320 321 319 319 321 322 322 321 321 319 321 324 324 326 327 329 327 337 340 343 344 344 343 344 344 343 343 343 343 343 342 342 344 344 344 343 344 345
311 312 312 313 314 316 319 320 321 322 323 324 323 323 321 321 320 320 325 328 327 328 327 326 328 337 342 344 343 343 346 344 343 343 343 343 345 345 342 344 345 346 346 345 345
310 311 311 312 313 315 318 321 322 324 326 324 324 324 322 321 320 323 326 326 327 326 325 324 326 334 342 341 341 345 346 351 344 342 343 343 348 344 342 344 346 346 347 347 346
309 310 311 311 313 314 318 322 323 326 328 328 327 326 323 323 321 325 327 326 326 325 325 324 333 340 341 343 345 344 350 350 347 343 344 343 347 344 342 344 345 346 346 346 346
309 309 310 311 312 313 320 325 325 326 327 328 328 326 324 327 325 323 326 324 322 322 323 325 333 340 342 343 345 347 347 348 348 346 345 346 347 344 342 343 343 344 345 345 345
310 310 310 310 312 314 324 326 324 323 325 327 327 324 324 328 328 325 324 323 323 322 324 325 331 336 337 340 341 343 344 346 345 344 347 349 348 347 343 343 343 343 343 343 343
310 310 310 310 312 318 325 325 323 322 323 324 324 325 324 325 327 327 323 323 323 324 322 326 330 332 332 338 340 342 343 344 344 345 347 348 350 346 344 343 343 343 343 342 341
310 311 311 310 312 323 325 324 323 324 324 324 324 324 323 325 326 327 322 322 322 322 323 325 327 325 331 337 339 339 338 341 342 347 345 347 349 348 346 344 343 343 343 342 342
309 310 311 310 312 315 323 324 323 325 327 326 325 326 324 326 327 328 322 322 321 323 322 324 322 326 331 332 335 335 336 339 344 346 348 346 346 349 348 347 345 344 343 343 341
312 309 311 311 310 312 320 323 323 324 332 326 326 326 325 326 324 327 322 323 324 322 322 324 322 324 327 329 333 334 338 340 345 345 344 346 346 345 347 349 347 344 344 343 342
318 310 312 311 310 311 315 321 325 325 324 329 326 326 326 324 323 323 324 324 321 322 321 323 320 322 325 325 335 335 337 337 339 342 341 342 344 344 347 350 348 345 344 343 343
320 311 312 312 310 314 320 324 326 324 324 329 328 325 325 326 326 325 325 327 327 326 325 322 323 322 322 326 334 336 334 334 336 339 339 337 345 343 343 342 343 346 343 343 343
320 312 321 317 311 314 321 327 325 321 328 328 327 324 327 326 326 324 325 327 322 323 323 323 323 323 322 325 329 334 332 332 333 337 337 337 344 341 337 334 337 337 340 342 342
320 315 319 313 310 313 324 325 325 322 327 327 326 327 328 325 326 324 326 327 327 322 325 324 323 320 320 323 329 332 335 332 332 324 333 337 340 335 336 340 343 342 341 344 342
319 319 322 317 311 315 324 321 322 322 326 325 328 325 329 328 327 325 324 324 325 322 324 325 326 321 321 321 319 329 328 330 327 333 333 330 330 333 337 335 338 345 343 343 342
314 319 322 317 318 323 320 321 322 323 324 324 327 327 325 327 329 326 326 324 322 321 321 322 324 323 320 323 324 323 328 321 326 325 331 329 328 332 335 335 335 340 345 344 343
316 313 321 319 325 319 322 322 322 325 323 324 324 326 327 325 327 327 328 326 321 320 322 322 325 327 323 319 319 322 325 325 327 327 324 325 327 327 329 331 330 332 342 343 344
312 311 320 322 328 326 323 323 323 327 326 325 326 324 324 327 330 326 328 329 323 322 323 320 326 325 324 322 320 323 321 321 321 324 329 327 327 329 325 326 327 333 339 344 344
311 316 320 321 319 322 324 327 327 323 324 324 326 325 326 328 327 331 332 335 330 321 321 320 321 327 325 325 325 324 321 320 324 326 327 326 328 329 330 330 330 335 339 343 344
313 316 314 321 322 319 320 322 325 326 323 322 324 324 326 327 328 330 332 336 334 326 320 322 326 324 324 323 323 325 324 320 324 327 326 328 327 329 331 331 329 332 338 340 344
313 314 314 315 315 319 317 320 323 323 323 324 324 325 326 330 328 330 336 336 338 335 333 323 328 325 326 323 324 326 326 325 323 323 323 326 328 329 327 326 329 334 338 340 343
309 310 312 314 317 319 320 321 322 321 322 322 322 323 327 327 324 325 329 331 335 336 336 333 330 333 331 327 326 327 328 328 327 326 328 330 332 327 329 333 333 338 338 339 339
Wind_Speed
16 16 15 15 15 14 14 13 13 13 12 11 10 12 9 9 9 9 6 1 5 5 7 10 6 1 1 3 1 3 3 4 6 9 9 14 10 11 10 18 6 1 11 19 28
16 15 15 15 16 15 14 14 13 13 12 11 10 11 9 9 11 11 6 3 5 4 3 4 5 5 2 2 1 0 2 3 6 9 13 16 18 14 11 14 6 11 16 26 27
16 16 16 16 15 15 15 15 14 13 12 11 10 9 9 7 9 3 7 10 8 5 2 1 2 2 1 1 3 2 3 3 5 8 20 19 15 5 15 9 12 23 28 27 24
17 17 17 17 17 16 15 15 15 13 11 11 10 9 8 3 4 2 8 10 12 8 4 1 1 1 0 4 3 2 2 5 9 14 17 17 16 7 9 3 14 25 32 28 24
18 18 18 18 18 17 16 15 14 14 12 10 9 8 7 4 7 3 4 12 14 10 5 1 2 1 3 3 3 3 3 6 12 17 14 16 13 5 3 9 18 27 29 26 22
19 18 18 18 18 18 16 16 15 13 12 11 9 8 6 4 6 5 3 14 15 11 4 2 4 4 5 4 3 4 8 14 15 15 16 13 9 9 5 16 23 27 28 25 23
20 19 19 19 18 18 16 16 14 14 11 10 10 9 9 12 4 8 6 11 11 8 5 4 1 2 1 5 3 4 8 9 11 13 7 14 6 8 16 19 27 25 24 24 23
21 21 20 19 18 18 16 15 12 11 8 4 6 7 7 5 9 8 11 9 11 8 7 3 3 3 2 7 4 3 2 2 5 10 9 13 1 11 23 25 24 23 22 22 23
22 21 20 19 18 16 14 12 11 8 6 5 6 5 6 3 8 11 12 6 4 5 5 2 5 4 4 4 3 1 3 3 5 10 7 11 2 9 23 24 23 22 22 22 22
22 21 20 19 17 14 11 11 8 8 5 6 8 4 6 2 5 10 13 7 5 7 6 4 3 3 2 3 2 3 3 3 6 9 8 10 5 11 21 22 24 22 21 22 22
23 22 20 18 15 11 8 7 6 4 4 6 3 4 3 1 4 10 12 11 6 3 4 2 5 9 10 3 4 4 2 2 3 5 8 11 7 13 21 21 21 22 21 22 24
24 23 20 17 13 5 4 3 6 6 8 10 17 21 20 12 1 8 11 8 6 7 5 3 11 8 4 7 5 4 1 4 2 3 5 3 9 10 21 26 30 29 26 26 25
25 24 20 16 8 1 1 4 7 10 4 6 6 9 12 10 5 8 17 10 4 6 6 8 1 5 7 6 6 5 5 4 3 5 3 3 6 8 14 18 22 24 27 27 27
26 24 21 15 4 5 3 4 9 6 2 2 2 2 9 7 4 9 16 8 3 12 6 5 1 5 6 8 7 10 1 4 5 4 2 2 5 6 11 18 20 27 29 30 29
27 25 20 15 8 3 3 4 7 3 0 1 3 5 9 7 5 8 17 6 9 7 6 6 5 7 6 8 9 4 5 4 4 3 3 3 5 2 7 12 20 29 32 32 30
28 25 19 12 6 5 5 3 0 2 2 2 4 4 7 3 2 4 5 6 6 5 1 4 1 4 7 3 4 8 6 6 4 1 5 2 5 6 5 7 9 27 34 34 31
29 24 16 10 2 6 4 5 1 3 2 2 2 4 5 7 4 5 8 12 9 7 10 2 5 2 2 3 4 3 6 2 2 4 4 1 5 11 9 8 10 15 29 35 32
28 21 10 5 6 9 7 2 3 1 3 2 1 1 7 8 4 4 9 11 3 3 3 10 8 9 7 10 5 11 5 6 7 4 2 4 6 5 3 8 13 15 16 26 31
26 12 6 4 7 10 5 3 3 3 3 6 0 4 5 4 4 4 7 11 12 11 6 6 6 2 6 5 8 6 7 1 3 2 3 2 7 12 4 5 3 1 13 21 30
24 4 6 4 8 8 1 2 3 3 4 2 2 2 7 6 7 6 9 5 10 15 11 6 3 2 5 6 5 7 11 5 1 4 5 4 5 9 13 14 6 3 11 18 26
15 2 3 5 5 1 3 4 4 4 3 2 2 3 1 3 5 4 4 3 5 10 10 9 5 2 3 10 11 5 5 3 3 2 7 9 7 8 16 12 12 4 11 19 26
12 3 3 2 1 1 2 3 3 2 1 3 3 5 3 1 4 5 5 4 7 13 9 9 7 9 8 2 3 1 5 8 7 6 3 3 7 5 9 9 11 12 11 18 22
18 6 4 2 2 1 3 3 3 3 1 2 3 4 1 2 3 4 4 3 7 10 10 11 7 4 5 4 2 5 3 3 3 1 8 9 8 2 7 11 15 12 14 19 16
8 4 4 5 5 3 4 3 3 3 5 6 4 3 3 4 4 1 3 4 4 7 6 11 4 11 7 11 5 6 6 8 9 4 7 9 12 13 15 13 16 4 10 18 20
7 3 3 4 2 6 3 4 5 4 2 3 2 2 4 4 3 4 4 2 2 5 3 8 6 6 3 2 5 4 10 13 11 7 6 9 8 14 17 13 14 3 14 18 22
5 4 6 5 7 5 1 1 3 4 3 2 3 10 6 6 4 6 4 3 2 4 3 2 2 3 3 3 3 3 4 7 6 2 12 13 13 12 23 13 15 7 18 22 24
4 3 2 4 4 4 1 2 2 10 5 8 6 10 9 2 14 16 11 8 1 0 3 3 5 4 6 1 4 4 13 11 6 8 8 6 9 5 9 9 14 8 20 25 27
Wind_Direction
348 347 345 343 341 340 337 334 333 333 334 330 321 317 306 289 279 274 294 184 131 128 108 98 98 194 340 57 97 107 94 128 144 160 143 143 126 146 126 132 133 86 151 158 157
346 344 342 341 338 337 335 330 328 327 329 327 321 318 310 290 279 263 252 213 160 109 119 62 48 47 44 56 55 293 75 143 163 144 153 156 149 146 148 136 96 110 146 156 159
344 342 341 338 336 334 332 327 322 322 322 322 319 316 317 297 287 246 226 218 186 173 146 90 18 358 44 159 27 69 76 154 143 153 151 151 146 146 150 183 173 157 154 161 164
340 340 339 336 334 332 329 323 318 317 317 314 313 313 313 285 207 185 220 193 192 190 186 137 44 187 126 70 47 123 85 128 134 144 146 157 152 134 158 187 173 165 162 162 170
337 337 335 332 330 328 327 320 314 313 310 304 303 307 313 256 248 252 218 187 193 192 190 126 44 69 66 69 77 61 75 90 135 141 145 148 160 153 167 139 152 157 163 167 173
335 332 330 328 327 325 325 316 312 312 304 292 289 293 289 256 242 227 200 188 196 184 184 122 41 73 88 66 52 48 86 109 135 139 152 156 156 135 160 147 150 161 170 175 176
334 331 329 325 324 320 321 312 312 313 306 285 276 277 269 250 244 216 188 185 184 175 118 106 53 45 78 110 78 84 100 103 146 152 154 146 152 220 162 162 160 171 175 179 183
333 331 329 326 322 318 320 312 313 311 310 283 264 276 258 246 219 204 178 170 166 153 147 58 140 108 80 121 61 68 75 109 156 177 163 183 216 185 170 166 171 177 183 188 191
333 331 330 328 323 319 318 312 308 303 285 264 264 255 268 281 208 194 179 156 183 162 168 165 134 100 128 146 137 70 183 153 169 202 167 210 202 167 176 177 175 184 187 195 200
335 333 331 330 324 324 311 313 296 288 262 263 249 268 242 169 165 193 199 188 129 134 127 142 113 142 132 183 172 218 207 169 191 190 197 204 209 157 176 185 184 187 193 200 204
340 336 336 333 327 324 315 319 310 280 251 224 179 241 269 176 205 183 194 185 183 115 173 81 206 214 211 141 144 157 218 208 227 210 214 217 206 180 182 187 189 193 199 203 209
341 339 340 337 331 322 1 58 46 325 304 267 244 251 252 252 232 175 192 165 170 200 127 167 229 224 126 160 175 180 232 249 241 189 226 240 247 197 189 200 193 190 196 207 211
341 339 342 344 337 5 118 47 359 340 280 288 247 245 234 212 221 193 174 153 147 167 198 208 287 182 196 169 203 228 245 223 280 147 179 273 250 182 208 218 216 209 204 204 211
343 337 339 350 338 329 220 325 344 330 314 239 240 235 180 167 195 177 174 153 122 197 170 234 340 170 190 211 203 256 202 191 184 199 283 308 299 219 202 209 215 213 210 205 208
345 336 334 333 319 290 216 279 329 346 232 111 107 156 163 184 125 172 185 178 152 152 187 199 185 191 212 224 194 267 75 118 139 129 298 186 270 220 166 214 219 218 216 213 207
343 335 327 320 310 235 213 253 318 267 248 91 126 160 156 191 130 106 164 163 130 127 213 216 240 211 240 96 172 146 107 84 86 151 266 315 249 274 196 203 226 218 217 213 210
342 336 326 308 236 161 172 155 229 227 352 82 85 167 179 173 170 174 176 190 191 187 206 179 211 255 204 134 115 175 165 244 231 209 253 171 219 263 261 242 243 212 215 212 207
343 339 340 309 209 182 155 142 223 271 273 11 30 148 191 163 198 151 155 188 192 157 155 201 208 202 172 218 190 183 234 220 254 234 260 179 239 257 250 285 267 247 232 212 203
344 348 3 356 174 165 167 182 238 220 329 330 352 185 190 177 202 172 195 204 208 191 217 168 233 207 216 160 184 168 209 40 146 110 259 302 278 275 272 262 308 247 190 193 195
345 354 25 45 155 156 150 239 245 232 325 293 273 224 178 155 173 194 181 203 210 199 203 180 231 207 142 129 59 214 149 174 179 229 247 220 276 272 300 308 325 210 181 185 189
349 9 27 115 135 164 214 241 264 265 249 285 311 293 257 164 166 184 192 203 208 184 209 175 220 118 165 209 173 154 188 64 135 272 256 266 261 238 259 279 293 251 187 185 184
356 315 338 175 205 358 206 210 301 302 321 279 264 258 254 202 178 209 220 243 175 155 186 183 203 222 211 74 14 221 195 190 216 206 244 289 263 260 269 278 280 287 204 196 190
339 308 358 296 262 239 305 274 260 281 265 296 274 247 234 277 231 197 210 149 175 176 164 171 208 179 180 172 141 225 175 160 119 127 220 254 270 169 260 270 275 269 203 197 178
347 330 3 50 52 359 355 288 277 261 270 248 272 281 282 251 227 253 228 170 160 204 199 170 163 202 199 195 164 173 186 200 211 185 238 233 262 270 274 275 278 253 199 200 189
358 37 4 337 60 349 311 313 289 304 259 272 237 168 345 271 218 223 227 222 147 145 100 191 217 193 190 178 185 191 179 191 204 212 227 256 219 259 264 268 280 280 183 197 188
12 6 344 289 301 290 172 283 281 313 264 283 265 339 302 236 258 218 208 228 203 126 127 137 178 194 130 147 185 224 237 207 245 219 247 269 271 274 278 259 263 224 183 195 196
359 339 349 306 315 285 179 340 342 344 269 270 345 329 288 208 315 284 280 290 203 197 127 173 156 189 156 108 161 236 230 201 204 212 231 234 273 329 309 269 260 235 191 197 203